TimeCST,TemperatureF,Dew PointF,Humidity,Sea Level PressureIn,VisibilityMPH,Wind Direction,Wind SpeedMPH,Gust SpeedMPH,PrecipitationIn,Events,Conditions,WindDirDegrees,DateUTC
12:21 AM,60.8,59.0,94,29.81,4.0,Calm,Calm,-,N/A,,Mostly Cloudy,0,2012-12-09 06:21:00
12:46 AM,60.8,59.0,94,29.81,4.0,Calm,Calm,-,N/A,,Mostly Cloudy,0,2012-12-09 06:46:00
12:53 AM,61.0,59.0,93,29.79,4.0,Calm,Calm,-,N/A,,Mostly Cloudy,0,2012-12-09 06:53:00
1:17 AM,60.8,59.0,94,29.80,2.5,Calm,Calm,-,N/A,,Partly Cloudy,0,2012-12-09 07:17:00
1:30 AM,60.8,57.2,88,29.80,1.2,Calm,Calm,-,N/A,,Partly Cloudy,0,2012-12-09 07:30:00
1:48 AM,57.2,57.2,100,29.80,0.8,Calm,Calm,-,N/A,,Mostly Cloudy,0,2012-12-09 07:48:00
1:53 AM,57.9,57.0,97,29.78,1.0,Calm,Calm,-,N/A,,Mostly Cloudy,0,2012-12-09 07:53:00
2:02 AM,59.0,57.2,94,29.79,0.8,Calm,Calm,-,N/A,,Mostly Cloudy,0,2012-12-09 08:02:00
2:07 AM,57.2,57.2,100,29.79,1.0,Calm,Calm,-,N/A,,Mostly Cloudy,0,2012-12-09 08:07:00
2:18 AM,57.2,57.2,100,29.78,0.5,Calm,Calm,-,N/A,Fog,Fog,0,2012-12-09 08:18:00
2:31 AM,55.4,55.4,100,29.79,1.5,Calm,Calm,-,N/A,,Scattered Clouds,0,2012-12-09 08:31:00
2:43 AM,57.2,55.4,94,29.79,0.5,Calm,Calm,-,N/A,Fog,Fog,0,2012-12-09 08:43:00
2:53 AM,57.0,55.9,96,29.77,0.8,Calm,Calm,-,N/A,,Mostly Cloudy,0,2012-12-09 08:53:00
3:02 AM,57.2,57.2,100,29.78,2.0,Calm,Calm,-,N/A,,Overcast,0,2012-12-09 09:02:00
3:12 AM,59.0,57.2,94,29.78,3.0,Calm,Calm,-,N/A,,Overcast,0,2012-12-09 09:12:00
3:29 AM,59.0,57.2,94,29.78,2.5,SE,3.5,-,N/A,,Overcast,130,2012-12-09 09:29:00
3:43 AM,60.8,59.0,94,29.79,4.0,Calm,Calm,-,N/A,,Overcast,0,2012-12-09 09:43:00
3:53 AM,59.0,57.9,96,29.78,2.0,Calm,Calm,-,N/A,,Overcast,0,2012-12-09 09:53:00
4:10 AM,59.0,57.2,94,29.77,4.0,Calm,Calm,-,N/A,,Overcast,0,2012-12-09 10:10:00
4:33 AM,60.8,59.0,94,29.77,2.5,Calm,Calm,-,N/A,,Scattered Clouds,0,2012-12-09 10:33:00
4:42 AM,60.8,59.0,94,29.77,5.0,Calm,Calm,-,N/A,,Scattered Clouds,0,2012-12-09 10:42:00
4:51 AM,59.0,57.2,94,29.77,1.8,Calm,Calm,-,N/A,,Partly Cloudy,0,2012-12-09 10:51:00
4:53 AM,59.0,57.9,96,29.76,1.5,Calm,Calm,-,N/A,,Partly Cloudy,0,2012-12-09 10:53:00
5:02 AM,59.0,57.2,94,29.77,0.8,Calm,Calm,-,N/A,,Scattered Clouds,0,2012-12-09 11:02:00
5:15 AM,57.2,57.2,100,29.77,2.0,ESE,3.5,-,N/A,,Partly Cloudy,110,2012-12-09 11:15:00
5:27 AM,57.2,57.2,100,29.78,3.0,Calm,Calm,-,N/A,,Partly Cloudy,0,2012-12-09 11:27:00
5:31 AM,57.2,57.2,100,29.78,1.8,Calm,Calm,-,N/A,,Partly Cloudy,0,2012-12-09 11:31:00
5:48 AM,57.2,55.4,94,29.77,3.0,Calm,Calm,-,N/A,,Clear,0,2012-12-09 11:48:00
5:53 AM,57.0,55.9,96,29.76,3.0,Calm,Calm,-,N/A,,Partly Cloudy,0,2012-12-09 11:53:00
6:25 AM,57.2,55.4,94,29.78,1.8,Calm,Calm,-,N/A,,Mostly Cloudy,0,2012-12-09 12:25:00
6:33 AM,57.2,55.4,94,29.78,3.0,Calm,Calm,-,N/A,,Mostly Cloudy,0,2012-12-09 12:33:00
6:50 AM,57.2,57.2,100,29.78,5.0,Calm,Calm,-,N/A,,Mostly Cloudy,0,2012-12-09 12:50:00
6:53 AM,59.0,57.0,93,29.77,7.0,Calm,Calm,-,N/A,,Overcast,0,2012-12-09 12:53:00
7:53 AM,59.0,57.0,93,29.76,7.0,East,3.5,-,N/A,,Scattered Clouds,80,2012-12-09 13:53:00
8:53 AM,64.9,62.1,90,29.77,9.0,Calm,Calm,-,N/A,,Scattered Clouds,0,2012-12-09 14:53:00
9:15 AM,66.2,62.6,88,29.79,10.0,SSE,3.5,-,N/A,,Mostly Cloudy,150,2012-12-09 15:15:00
9:53 AM,69.1,63.0,81,29.77,10.0,SSW,4.6,-,N/A,,Mostly Cloudy,200,2012-12-09 15:53:00
10:53 AM,70.0,64.0,81,29.76,9.0,SSW,3.5,-,N/A,,Overcast,200,2012-12-09 16:53:00
11:20 AM,71.6,64.4,78,29.77,9.0,Calm,Calm,-,N/A,,Mostly Cloudy,0,2012-12-09 17:20:00
11:53 AM,73.0,64.0,73,29.73,9.0,Variable,3.5,-,N/A,,Mostly Cloudy,0,2012-12-09 17:53:00
12:15 PM,75.2,62.6,65,29.73,10.0,SSW,11.5,18.4,N/A,,Mostly Cloudy,210,2012-12-09 18:15:00
12:53 PM,75.0,61.0,62,29.70,10.0,SSW,9.2,19.6,N/A,,Mostly Cloudy,210,2012-12-09 18:53:00
1:53 PM,66.9,61.0,81,29.71,6.0,Calm,Calm,-,0.01,Rain,Light Rain,0,2012-12-09 19:53:00
2:20 PM,68.0,60.8,78,29.72,7.0,WNW,6.9,-,N/A,,Scattered Clouds,290,2012-12-09 20:20:00
2:53 PM,69.1,60.1,73,29.71,8.0,WNW,13.8,20.7,N/A,,Partly Cloudy,300,2012-12-09 20:53:00
3:53 PM,66.9,57.0,70,29.74,9.0,WNW,13.8,20.7,N/A,,Clear,290,2012-12-09 21:53:00
4:53 PM,64.0,52.0,65,29.77,9.0,West,10.4,21.9,N/A,,Overcast,270,2012-12-09 22:53:00
5:53 PM,61.0,51.1,70,29.80,9.0,WNW,13.8,17.3,N/A,,Overcast,290,2012-12-09 23:53:00
6:39 PM,60.8,50.0,68,29.84,10.0,NNW,9.2,19.6,N/A,,Overcast,330,2012-12-10 00:39:00
6:53 PM,59.0,48.9,69,29.83,10.0,NW,9.2,-,N/A,,Overcast,320,2012-12-10 00:53:00
7:53 PM,55.9,46.9,72,29.85,10.0,NW,5.8,-,N/A,,Overcast,320,2012-12-10 01:53:00
8:53 PM,54.0,44.1,69,29.87,10.0,NW,8.1,-,N/A,,Overcast,310,2012-12-10 02:53:00
9:53 PM,51.1,42.1,71,29.88,10.0,NNW,5.8,-,N/A,,Scattered Clouds,330,2012-12-10 03:53:00
10:19 PM,51.8,41.0,67,29.90,10.0,NW,8.1,-,N/A,,Overcast,320,2012-12-10 04:19:00
10:53 PM,51.1,41.0,68,29.89,10.0,NW,6.9,-,N/A,,Overcast,310,2012-12-10 04:53:00
11:53 PM,51.1,39.9,66,29.90,10.0,NW,8.1,-,N/A,,Overcast,320,2012-12-10 05:53:00